User: anonymous   Login
Location: Unspecified
(0.0000°N, 0.0000°E)
Time: 00:08:08
(UTC+00:00)
Language:

IRIDE-MS2-HEO-1 - Orbit

View from above orbital plane
View from above orbital plane
View from above satellite
View from above satellite

Ground track
Ground track

The orbit is defined by the following mean orbital elements,

1 62697U          26145.59442653 +.00000000 +00000-0 +13140-3 0 00001
2 62697  97.7046 224.3178 0003863  87.4868 272.6795 14.94302015    00
Epoch (UTC): 25 May 2026 14:15:58
Eccentricity: 0.0003863
inclination: 97.7046°
perigee height: 582 km
apogee height: 587 km
right ascension of ascending node: 224.3178°
argument of perigee: 87.4868°
revolutions per day: 14.94302015
mean anomaly at epoch: 272.6795°

The dashed part of the orbit path shows where the satellite is in the earth's shadow,  

DLR